Location: Unspecified
(48.7670°N, 0.0000°E)
Time: 15:03:16
(UTC+00:00)

Vanguard 2 Rocket - Pass Details

Date: 20 June 2019
Orbit: 554 x 3326 km, 32.9° (Epoch: 21 July)

Event Time Altitude Azimuth Distance (km) Brightness Sun altitude
Rises 01:36:42 0° 260° (W) 5,397 10.5 -14.7°
Reaches altitude 10° 01:40:02 10° 253° (WSW) 4,732 10.2 -14.5°
Maximum altitude 01:53:06 42° 190° (S) 3,761 9.5 -13.6°
Drops below altitude 10° 02:10:46 10° 129° (SE) 6,282 11.1 -12.2°
Sets 02:16:04 0° 124° (ESE) 7,267 11.5 -11.8°
